Flag for Germany Weather past 2 weeks in Pforzheim, Baden-Württemberg, Germany

Now
61 °F

Sunny.


Feels Like: 61 °F
Forecast: 49 / 61 °F
Wind: 15 mph from Northwest

Location: Stuttgart-Echterdingen

Current Time: Sep 5, 2015 at 4:29:45 PM

Latest Report: Sep 5, 2015 at 3:50 PM


Visibility: 10 mi

Pressure: 30.04 "Hg

Humidity: 55%

Dew point: 45 °F

Location of PforzheimLocation

Historic Weather in Pforzheim — Graph

°F

Pforzheim temperature yesterday

Maximum temperature yesterday: 66 °F (at 12:50 PM)
Minimum temperature yesterday: 50 °F (at 6:20 AM)
Average temperature yesterday: 59 °F

Past Weeks' High & Low Weather Summary

 TemperatureHumidityPressure
High91 °F (Aug 30, 2:20 PM)100% (Aug 23, 8:50 PM)30.21 "Hg (Aug 23, 8:50 PM)
Low46 °F (Sep 5, 4:50 AM)20% (Aug 31, 5:20 PM)29.71 "Hg (Aug 24, 1:50 PM)
Average67 °F66%30.00 "Hg
* Reported Aug 21 3:20 PM — Sep 5 3:20 PM, Pforzheim, Weather by CustomWeather, © 2015

Note: Actual official high and low records may vary slightly from our data, if they occured in-between our weather recording intervals... More about our weather records

Advertising

Pforzheim weather history for previous 24 hours

 ConditionsComfort  
Time TempWeatherWind HumidityBarometerVisibility
3:20 PM
Sat, Sep 5
63 °FSunny.15 mph52%30.04 "Hg10 mi
2:50 PM63 °FPassing clouds.14 mph45%30.04 "HgN/A
2:20 PM63 °FPassing clouds.13 mph42%30.04 "HgN/A
1:50 PM61 °FPartly sunny.13 mph52%30.04 "HgN/A
1:20 PM61 °FPartly sunny.9 mph48%30.04 "HgN/A
12:50 PM61 °FPartly sunny.9 mph48%30.04 "HgN/A
12:20 PM61 °FPartly sunny.10 mph48%30.04 "HgN/A
11:50 AM61 °FScattered clouds.9 mph52%30.04 "HgN/A
11:20 AM59 °FPartly sunny.9 mph55%30.04 "HgN/A
10:50 AM59 °FPartly sunny.8 mph59%30.04 "HgN/A
10:20 AM57 °FPassing clouds.10 mph63%30.04 "HgN/A
9:50 AM55 °FPassing clouds.8 mph63%30.04 "HgN/A
9:20 AM55 °FPassing clouds.10 mph67%30.04 "HgN/A
8:50 AM54 °FPassing clouds.2 mph72%30.04 "HgN/A
8:20 AM52 °FSunny.1 mph82%30.04 "Hg10 mi
7:50 AM50 °FPassing clouds.5 mph82%30.04 "HgN/A
7:20 AM48 °FPassing clouds.5 mph82%30.04 "HgN/A
6:50 AM48 °FClear.7 mph82%30.01 "Hg10 mi
6:20 AM46 °FClear.8 mph87%30.01 "Hg10 mi
5:20 AM48 °FClear.3 mph82%30.01 "Hg10 mi
4:50 AM46 °FClear.3 mph82%30.01 "Hg10 mi
4:20 AM48 °FClear.1 mph82%30.01 "Hg10 mi
3:50 AM50 °FClear.No wind76%30.01 "Hg10 mi
3:20 AM50 °FPassing clouds.3 mph76%30.01 "HgN/A
2:50 AM52 °FPassing clouds.3 mph72%30.01 "HgN/A
2:20 AM52 °FClear.2 mph72%30.01 "Hg10 mi
1:50 AM54 °FClear.3 mph67%30.01 "Hg10 mi
1:20 AM54 °FClear.2 mph67%30.01 "Hg10 mi
12:50 AM54 °FClear.3 mph67%30.01 "Hg10 mi
12:20 AM55 °FClear.2 mph63%30.01 "Hg10 mi
11:50 PM
Fri, Sep 4
55 °FClear.5 mph63%30.01 "Hg10 mi
11:20 PM57 °FClear.6 mph59%30.01 "Hg10 mi
10:50 PM57 °FClear.3 mph59%30.01 "Hg10 mi
10:20 PM57 °FClear.1 mph59%30.01 "Hg10 mi
9:50 PM59 °FClear.5 mph51%30.01 "Hg10 mi
9:20 PM59 °FClear.5 mph51%30.01 "Hg10 mi
8:50 PM59 °FSunny.5 mph51%30.01 "Hg10 mi
8:20 PM59 °FSunny.8 mph51%29.98 "Hg10 mi
7:50 PM61 °FSunny.8 mph48%29.98 "Hg10 mi
7:20 PM63 °FSunny.10 mph42%29.98 "Hg10 mi
6:50 PM63 °FPassing clouds.8 mph42%29.98 "HgN/A
6:20 PM64 °FPassing clouds.12 mph43%29.98 "HgN/A
5:50 PM64 °FPassing clouds.10 mph43%29.98 "HgN/A
5:20 PM66 °FPassing clouds.9 mph40%29.98 "HgN/A
4:50 PM66 °FPassing clouds.8 mph43%29.98 "HgN/A
4:20 PM64 °FPassing clouds.12 mph46%29.98 "HgN/A
Weather by CustomWeather, © 2015

See weather overviewHow to use our weather pages